User: anonymous   Login
Location: Chilton Park
(37.7711°N, 100.0276°W)
Time: 02:49:11
(UTC+00:00)
Language:

deb r/b Ablestar - Orbit

View from above orbital plane
View from above orbital plane
View from above satellite
View from above satellite

Ground track
Ground track

The orbit data is extracted from the following two-line orbital elements,

1 00325U 61015DB  22279.40392733  .00001101  00000-0  55698-3 0  9995
2 00325  66.9158 312.2862 0061693 326.7801  32.9425 14.18821862141386
Epoch (UTC): 06 October 2022 09:41:39
Eccentricity: 0.0061693
inclination: 66.9158°
perigee height: 785 km
apogee height: 874 km
right ascension of ascending node: 312.2862°
argument of perigee: 326.7801°
revolutions per day: 14.18821862
mean anomaly at epoch: 32.9425°
orbit number at epoch: 14138

The dashed part of the orbit path shows where the satellite is in the earth's shadow,  

DLR